Regional Weather Roundup
Issued by NWS

Home | Current Version | Previous Version | Graphics & Text | Print | Product List | Glossary On
Versions: 1 2 3 4 5 6 7 8 9 10 11 12 13 14 15 16 17 18 19 20 21 22 23 24 25 26 27 28 29 30 31 32 33 34 35 36 37 38 39 40 41 42 43 44 45 46 47 48 49 50
000
ASUS43 KTOP 290108
RWRKS

WEATHER ROUNDUP FOR KANSAS
NATIONAL WEATHER SERVICE GOODLAND KS
800 PM CDT FRI AUG 28 2015

NOTE:  "FAIR" INDICATES FEW OR NO CLOUDS BELOW 12,000 FEET WITH NO
SIGNIFICANT WEATHER AND/OR OBSTRUCTIONS TO VISIBILITY.

KSZ001>006-013>018-027>032-041>047-290200-
NORTHWEST KANSAS

CITY           SKY/WX    TMP DP  RH WIND       PRES   REMARKS
GOODLAND       CLEAR     82  49  31 NE10      30.07R
HAYS           CLEAR     82  61  47 NE16      29.96R
HILL CITY      CLEAR     81  61  50 N13       29.99R
RUSSELL        CLEAR     80  64  58 N12       29.94R
$$

KSZ061>065-074>080-084>089-290200-
SOUTHWEST KANSAS

CITY           SKY/WX    TMP DP  RH WIND       PRES   REMARKS
DODGE CITY     CLEAR     82  57  42 NE7       29.97R
ELKHART          N/A     86  57  37 N2          N/A
GARDEN CITY    PTCLDY    84  56  38 NE10      29.98R
GREAT BEND     CLEAR     84  61  45 N14       29.93R
LIBERAL        PTCLDY    88  55  33 SE3       30.00S
PRATT          CLEAR     82  61  47 CALM      29.94R
$$

KSZ066>073-081>083-090>101-290200-
SOUTHEAST KANSAS

CITY           SKY/WX    TMP DP  RH WIND       PRES   REMARKS
CHANUTE        MOCLDY    74  69  85 S10       29.91F
COFFEYVILLE    PTCLDY    73  69  87 S6        29.92F
HUTCHINSON     CLEAR     83  63  50 N7        29.91R
MEDICINE LODGE   N/A     86  66  51 S5        29.89S
NEWTON         MOCLDY    73  63  68 E9        29.95R
PARSONS        PTCLDY    73  71  93 S5        29.93F
WICHITA INTL   PTCLDY    81  68  64 S12       29.89R
WICHITA JABRA  MOCLDY    76  57  51 E14G39    29.94R
WICHITA MCCONL PTCLDY    79  68  67 SE12      29.91R
WINFIELD       CLEAR     77  68  73 S9        29.92R
$$

KSZ007>012-019>026-033>040-048>060-102>105-290200-
NORTHEAST KANSAS

CITY           SKY/WX    TMP DP  RH WIND       PRES   REMARKS
CONCORDIA      CLOUDY    73  65  75 N8        29.95R
EMPORIA        CLOUDY    75  68  78 S9        29.90R
LAWRENCE       CLOUDY    74  66  76 S8        29.89S
MANHATTAN      PTCLDY    76  69  79 N7        29.88R
MARYSVILLE     PTCLDY   N/A N/A N/A N13       29.92R
OLATHE IND     CLOUDY    72  67  84 S8        29.92S
OLATHE EXE     CLOUDY    71  67  87 S7        29.91S
SALINA         LGT RAIN  80  67  64 N14       29.91R
TOPEKA BILLARD MOCLDY    75  68  78 S7        29.87F
TOPEKA FORBES  MOCLDY    75  67  76 S12       29.88S
$$



USA.gov is the U.S. government's official web portal to all federal, state and local government web resources and services.